Temp
14 14 14 14 14 14 14 14 14 14 14 14 14 14 14 14 14 14 14 13 13 13 13 13 13 13 13 13 13 13 13 14 14 15 15 15 15 15 15 15 15 15 14 13 13 13 13 13 13 14 14 14 15 16 16 16 17 17 17 17 17 17 17 17 17 17 17 17 17
14 14 14 14 14 14 14 14 14 13 13 14 14 14 14 14 14 14 14 14 13 13 13 13 13 13 13 13 13 13 13 13 13 14 14 15 15 15 15 15 15 15 14 14 13 13 13 14 14 14 14 15 15 16 16 16 17 17 17 17 17 17 17 17 17 17 17 17 17
14 14 14 14 14 13 13 13 13 13 13 14 13 13 13 13 14 14 13 13 13 13 13 13 13 13 13 13 13 13 13 13 13 13 14 14 15 15 15 15 15 15 15 14 14 13 14 14 14 14 14 15 15 16 16 16 16 17 17 17 17 17 17 17 17 17 17 17 17
14 14 13 14 14 14 13 13 13 13 13 13 13 13 13 13 13 13 13 13 13 13 13 13 13 13 13 13 12 12 12 12 13 13 13 14 14 14 14 14 15 14 14 14 14 13 14 14 14 14 15 15 15 15 16 16 16 16 17 17 17 17 16 16 17 17 17 17 17
14 13 13 13 13 13 13 13 13 13 13 13 13 13 13 13 13 13 13 13 13 13 13 13 13 13 12 12 12 12 12 12 12 13 13 13 14 14 14 14 14 14 14 14 13 13 14 14 14 14 15 15 15 15 16 16 16 16 16 16 16 16 16 16 16 16 16 17 17
14 13 13 13 13 13 14 13 13 13 13 13 13 13 13 13 13 13 13 13 13 13 13 13 13 12 12 12 12 12 12 12 12 12 13 13 13 13 13 13 13 13 13 13 13 13 14 14 14 15 15 15 15 15 16 16 16 16 16 16 16 16 16 16 16 16 16 16 16
14 13 13 13 13 13 13 13 13 13 13 13 13 13 13 13 13 13 13 13 13 13 13 13 13 12 12 12 12 12 12 12 12 12 12 12 12 12 12 12 12 13 13 13 13 13 14 14 15 15 15 15 15 15 16 16 16 16 16 16 16 16 16 16 16 16 16 16 16
14 14 13 13 13 13 13 13 13 13 13 13 13 13 13 13 13 13 13 13 13 13 13 13 13 12 12 12 12 12 12 12 12 12 12 12 12 12 12 12 12 12 13 13 13 14 14 15 15 15 15 15 15 15 16 16 16 16 16 16 16 16 16 16 16 16 16 16 16
14 14 13 13 13 13 13 13 13 13 13 13 13 13 13 13 13 13 13 13 13 13 13 13 13 13 12 12 12 12 12 12 12 12 12 12 12 12 12 12 12 12 13 13 14 14 15 15 15 15 15 15 15 15 16 16 16 16 16 16 16 16 16 16 16 16 16 16 16
14 13 13 13 13 13 13 13 13 13 13 13 13 13 13 13 13 13 13 13 13 13 13 13 13 13 12 12 12 12 12 12 12 12 12 12 12 12 12 12 12 12 13 13 14 15 15 15 15 15 16 16 16 16 16 16 16 16 16 16 16 16 16 15 15 15 16 16 16
13 13 13 13 13 13 13 13 13 13 13 13 13 13 13 13 13 13 13 13 13 13 13 13 13 13 12 12 12 12 12 12 12 12 12 12 12 12 12 12 12 13 13 14 14 15 15 15 16 16 16 16 16 16 16 15 15 15 15 16 16 15 15 15 15 15 15 15 16
13 13 13 13 13 13 13 13 13 13 13 13 13 13 13 13 13 13 13 13 13 13 13 13 12 12 12 12 12 12 12 12 12 12 12 12 12 12 12 12 12 13 13 13 14 14 15 15 15 16 16 16 16 15 15 15 15 15 15 15 15 15 15 15 15 15 15 15 16
13 13 13 13 13 13 13 13 13 13 13 13 13 13 13 13 12 12 13 13 13 12 12 12 12 12 12 12 12 12 12 12 12 12 12 12 12 12 12 12 12 12 13 13 14 14 14 15 15 15 15 15 15 15 15 15 15 15 15 15 15 15 15 15 15 15 15 15 15
14 13 13 13 13 13 13 13 13 13 13 13 13 13 13 13 12 12 12 12 12 12 12 12 12 12 12 12 12 12 12 12 12 12 12 12 12 12 12 12 12 12 12 13 13 14 15 15 15 15 15 15 15 15 15 15 15 15 15 15 15 15 15 15 15 15 15 15 15
14 13 13 13 13 13 13 13 13 13 13 13 13 13 12 12 12 12 12 12 12 12 12 12 12 12 12 12 12 12 12 12 12 12 12 12 12 12 12 12 12 12 12 12 13 14 14 15 14 14 14 14 15 15 15 15 14 14 14 15 15 15 15 15 15 16 15 15 15
14 14 13 13 13 13 13 13 13 13 13 13 13 13 12 12 12 12 12 12 12 12 12 12 12 12 12 12 12 12 12 12 12 12 12 12 12 12 12 12 12 12 12 12 13 14 14 14 14 14 14 14 14 14 14 14 14 14 14 14 15 15 15 16 16 16 16 15 15
14 14 14 13 13 13 13 13 13 13 13 13 13 12 12 12 12 12 12 12 12 12 12 12 12 12 12 12 12 12 12 12 12 12 12 12 12 12 12 12 12 12 12 13 13 14 14 15 15 15 14 14 14 13 14 14 14 14 14 14 14 15 15 16 16 16 16 16 16
14 14 14 13 13 13 13 13 13 13 13 13 13 12 12 12 12 12 12 12 12 12 12 12 12 12 12 12 12 12 12 12 12 12 12 12 12 12 12 12 12 13 13 13 14 14 15 15 15 15 15 14 14 13 13 13 14 14 14 14 14 14 15 15 16 16 16 16 16
14 14 14 13 13 13 13 13 13 13 13 13 13 13 12 12 12 12 12 12 12 12 12 12 12 12 12 12 12 12 12 12 12 12 12 12 12 12 12 12 12 13 13 14 14 15 15 15 16 15 15 15 14 14 14 13 14 14 14 14 14 14 14 15 16 16 16 16 16
14 14 14 14 13 13 13 13 13 13 13 13 13 13 12 12 12 12 12 12 12 12 12 12 12 12 12 12 12 12 12 12 12 12 12 12 12 12 12 12 12 13 13 13 14 14 15 15 15 15 15 14 14 13 13 13 14 14 14 14 14 14 14 15 16 16 16 16 16
14 14 14 14 13 13 13 13 13 13 13 13 13 13 13 12 12 12 12 12 12 12 12 12 12 12 12 12 12 12 12 13 12 12 12 12 12 12 12 12 12 12 13 13 13 13 14 14 14 14 14 13 13 13 13 13 13 13 13 13 14 14 15 15 16 16 16 16 16
14 14 14 14 13 13 13 13 13 13 13 13 13 13 13 12 12 12 12 12 12 12 12 12 12 12 12 12 12 13 13 13 13 13 13 13 12 12 12 12 12 12 12 13 13 13 13 13 13 13 13 13 12 12 12 13 13 13 13 14 14 14 15 15 16 16 16 16 16
15 14 14 14 14 13 13 13 13 13 13 13 13 13 13 12 12 12 12 12 12 12 12 12 12 12 12 12 13 13 13 13 13 13 13 13 13 12 12 12 12 12 12 12 12 12 12 13 13 13 12 12 12 12 12 12 13 13 13 13 14 14 15 15 16 16 16 16 16
15 15 14 14 14 13 13 13 13 13 13 13 13 13 13 13 13 12 12 12 12 12 12 12 12 12 12 13 13 13 13 13 13 13 13 13 13 13 13 12 12 12 12 12 12 12 12 12 12 12 12 12 12 12 12 12 13 13 13 13 14 14 15 15 16 16 16 16 16
15 15 15 14 14 14 14 14 14 14 13 13 13 13 13 13 13 13 12 12 12 12 12 12 12 12 13 13 13 13 13 13 13 13 13 14 14 14 13 13 13 12 12 12 12 12 12 12 12 12 12 12 12 12 13 13 13 13 14 14 14 14 15 15 16 16 16 16 16
15 15 15 15 15 14 14 14 14 14 14 14 13 13 13 13 13 13 13 13 12 12 12 12 12 13 13 13 13 13 13 13 13 13 13 13 14 14 14 14 13 13 13 13 13 13 13 13 13 13 13 13 13 13 13 13 14 14 14 15 15 15 15 15 16 16 16 16 16
15 15 15 15 15 15 14 14 14 14 14 14 14 13 13 13 13 13 13 13 13 13 12 12 13 13 13 13 13 13 13 13 13 13 13 13 13 14 14 14 14 14 14 14 14 14 14 14 14 14 14 14 14 14 14 14 14 15 15 15 15 15 15 15 15 16 16 16 16
15 16 15 15 15 15 14 14 14 14 14 14 14 14 14 13 13 13 13 13 13 13 13 13 13 13 13 13 13 13 13 13 13 13 13 13 13 13 14 14 14 14 14 14 14 14 14 14 14 14 14 14 14 14 14 14 14 14 15 15 15 15 15 15 15 15 15 16 16
16 16 16 15 15 15 15 14 14 14 14 14 14 14 14 14 14 14 14 14 13 13 13 13 13 13 13 13 13 13 13 13 13 13 13 13 13 13 13 14 14 14 14 14 14 14 15 15 15 15 15 15 14 14 14 14 14 14 14 14 14 15 15 15 15 15 15 15 15
16 16 16 16 15 15 15 15 15 15 15 15 15 14 14 14 14 14 14 14 14 14 13 13 13 13 13 13 13 13 13 13 13 13 13 13 13 13 13 13 14 14 14 14 14 15 15 15 15 15 15 15 15 14 14 14 14 14 14 14 14 14 14 14 14 14 14 14 14
16 16 16 16 16 15 15 15 15 15 15 15 15 15 14 14 14 14 14 14 14 14 14 14 14 14 14 14 14 14 14 14 14 13 13 13 13 13 13 13 13 14 14 14 14 14 14 15 15 15 15 15 15 15 14 14 14 14 14 14 14 14 14 14 13 13 13 13 13
16 16 16 16 16 16 16 15 15 15 15 15 15 15 15 15 14 14 14 14 14 14 14 14 14 14 14 14 14 14 14 14 14 14 13 13 13 13 13 13 13 14 14 14 14 14 14 14 14 15 15 15 15 15 14 14 13 13 13 13 13 12 12 12 12 12 12 12 11
16 16 16 16 16 16 16 16 16 16 16 15 15 15 15 15 15 15 15 15 15 15 14 14 14 14 14 14 14 14 14 14 14 14 14 14 14 14 14 14 14 13 13 13 14 14 14 14 14 14 14 15 15 14 14 13 13 12 12 11 11 11 11 10 10 10 10 10 10
17 16 16 16 16 16 16 16 16 16 16 16 16 15 15 15 15 15 15 15 15 15 15 15 15 14 14 14 14 14 14 14 14 14 14 14 14 14 14 14 13 13 13 13 14 14 14 14 14 14 15 14 14 14 13 12 12 11 10 9 9 9 9 9 8 8 8 7 8
17 17 17 17 16 16 16 16 16 16 16 16 16 16 16 15 15 15 15 15 15 15 15 15 15 15 15 15 14 14 14 14 14 14 14 14 14 14 14 14 13 13 13 13 13 13 14 14 14 14 14 14 13 12 11 11 10 9 8 8 7 7 7 6 6 6 6 6 6
17 17 17 17 17 17 17 17 16 16 16 16 16 16 16 16 16 16 16 15 15 15 15 15 15 15 15 15 15 15 15 15 14 14 14 13 14 14 14 14 13 12 12 12 12 13 13 13 14 14 14 12 11 11 10 9 8 7 6 6 5 5 4 4 4 4 4 4 5
17 17 17 17 17 17 17 17 17 17 16 16 16 16 16 16 16 16 16 16 16 16 15 15 15 15 15 15 15 14 14 14 14 13 12 12 12 12 13 12 11 11 11 11 12 12 12 13 13 13 12 11 10 9 8 7 6 5 4 4 3 3 2 2 2 3 3 3 3
17 17 17 17 17 17 17 17 17 17 17 17 16 17 16 16 16 16 16 16 16 16 16 16 16 16 15 15 14 12 11 11 10 10 11 10 10 10 11 10 9 9 10 11 11 12 12 13 13 13 11 10 9 8 6 5 4 3 2 1 1 1 1 1 1 1 1 1 2
17 17 17 17 17 17 17 17 17 17 17 17 17 17 17 17 17 16 16 16 16 16 16 16 16 15 14 12 11 10 8 8 8 8 8 8 8 8 8 8 8 8 9 10 11 12 12 12 12 12 11 9 8 6 5 4 2 1 0 -0 -1 -1 -1 -0 -0 -0 -0 -0 0
18 18 17 18 18 18 18 17 17 17 17 17 17 17 17 17 17 17 17 16 16 15 14 13 13 12 11 10 9 7 5 5 5 6 6 5 5 5 6 6 6 7 8 9 11 11 11 12 12 11 10 8 7 5 4 3 1 0 -1 -1 -2 -2 -2 -2 -2 -2 -2 -2 -1
18 18 18 18 18 18 18 18 18 18 17 17 17 17 17 17 17 16 15 15 14 13 11 10 10 9 9 8 7 5 3 3 3 3 3 3 4 4 5 5 5 6 7 9 9 10 10 11 11 11 10 8 6 4 3 2 1 -0 -1 -2 -2 -3 -3 -3 -3 -3 -3 -3 -3
Height
708 710 711 713 714 716 717 718 719 721 721 723 724 725 726 727 729 731 732 734 735 736 738 739 741 742 744 746 748 750 751 753 755 757 758 760 762 764 766 768 770 771 773 776 778 780 781 782 784 785 786 788 789 790 791 790 790 789 790 791 792 793 794 795 796 797 798 799 799
707 708 710 712 713 715 716 717 719 720 721 722 723 724 725 726 728 729 731 732 734 735 737 738 740 741 743 745 747 748 750 752 754 756 757 759 761 763 765 767 768 770 772 774 776 778 780 781 782 784 785 786 787 788 788 788 788 788 789 790 791 792 793 794 795 796 796 797 798
706 708 709 711 712 714 715 716 717 719 720 721 723 724 725 726 727 728 729 731 733 735 736 737 738 740 741 744 746 747 749 751 753 755 756 759 761 762 764 765 767 768 770 772 774 776 778 780 781 782 783 784 785 786 786 787 787 787 788 789 790 791 792 793 794 795 796 796 797
705 707 708 710 711 712 714 715 716 718 719 721 722 723 724 725 726 727 729 730 732 734 735 736 737 739 741 742 744 746 747 749 751 754 756 757 759 761 762 764 765 766 768 771 773 775 777 779 781 782 782 783 784 785 786 786 786 786 787 787 789 790 791 792 793 794 795 795 796
705 706 707 708 710 711 712 714 715 717 718 720 721 722 723 724 725 726 728 729 731 732 733 734 736 738 739 741 742 744 746 748 750 752 755 756 758 759 761 762 763 765 767 769 772 775 777 779 780 781 782 783 784 784 785 785 785 785 786 787 788 789 790 791 791 792 793 794 795
703 705 706 707 709 711 712 713 715 716 717 719 720 721 722 723 724 726 727 728 729 731 732 733 735 736 738 739 741 743 745 747 749 751 753 755 756 757 759 760 761 763 766 769 771 774 776 778 779 780 781 782 783 783 783 784 784 784 785 786 786 787 788 789 790 791 792 793 794
702 704 706 707 709 710 712 713 714 716 717 718 719 720 721 722 723 724 726 727 729 730 731 732 734 735 736 738 740 741 743 745 747 749 751 753 755 756 758 759 761 764 766 768 771 773 775 776 777 778 779 781 781 782 782 782 782 782 783 784 785 786 787 788 789 790 791 791 792
702 703 705 706 708 709 711 712 713 715 716 717 718 719 720 721 722 723 725 726 728 729 731 731 732 733 735 736 738 740 742 744 746 747 750 751 753 755 757 759 761 763 766 768 770 772 773 775 775 776 777 778 779 780 780 780 781 781 781 782 784 785 786 786 787 788 789 790 791
701 702 704 706 707 708 710 711 712 714 715 716 717 718 719 720 721 723 724 726 727 728 730 731 731 732 734 735 737 739 741 742 744 746 748 750 752 754 756 759 761 763 765 766 768 770 771 772 773 774 775 776 776 777 777 778 779 779 780 781 782 783 784 785 786 787 787 788 789
700 701 703 705 706 708 709 710 711 713 714 715 716 717 719 720 721 722 723 725 726 728 729 730 731 732 733 734 736 737 739 741 742 744 746 748 750 753 755 757 759 761 763 765 766 768 769 770 770 771 772 773 774 774 775 776 777 777 778 779 781 781 782 783 784 785 786 786 787
698 700 701 703 705 706 708 710 711 712 713 715 716 717 718 719 721 721 723 725 726 727 728 729 730 731 732 733 734 736 738 740 741 743 745 747 749 751 753 756 758 760 761 763 764 766 767 767 767 768 769 770 771 772 773 774 775 776 776 778 779 780 781 781 782 783 784 785 785
697 698 700 702 704 706 707 709 710 711 712 714 715 716 718 719 720 721 722 724 725 726 727 728 729 730 731 732 733 735 737 738 740 742 744 745 747 749 752 754 756 758 760 761 762 763 765 765 766 766 767 768 769 771 772 773 774 775 775 776 777 778 779 780 781 781 782 783 784
696 697 699 701 703 705 706 708 709 710 711 713 714 716 717 718 719 720 721 723 724 725 726 727 728 729 730 731 733 734 736 737 739 741 742 744 746 748 750 752 755 756 758 759 760 761 762 763 764 765 766 767 768 769 771 772 773 774 774 775 776 776 777 778 779 780 781 782 783
695 696 698 700 702 704 705 707 708 709 711 712 713 715 716 717 718 719 721 721 723 724 725 726 727 728 730 731 732 733 735 736 738 739 741 743 745 747 749 751 753 755 756 757 758 759 760 761 762 763 765 766 767 768 770 771 772 772 773 774 774 775 775 776 777 779 780 781 781
694 696 697 699 701 702 704 706 707 709 710 711 712 714 715 716 717 718 720 721 722 723 724 725 726 728 729 730 731 733 734 735 737 739 740 742 744 746 748 750 751 753 754 755 756 757 758 759 761 762 763 765 766 767 768 769 770 771 772 773 773 773 774 775 776 777 778 779 779
693 694 696 698 700 701 703 705 706 708 709 710 711 712 714 715 716 717 719 720 721 722 723 724 726 727 728 730 731 732 733 735 736 738 739 741 743 744 746 748 749 751 752 753 754 755 756 758 759 761 762 763 764 766 766 768 768 770 771 771 772 772 773 773 774 775 776 776 777
692 693 695 696 698 700 701 703 705 706 708 709 710 711 713 714 715 716 717 719 720 721 722 723 725 726 727 729 730 731 733 734 735 736 738 739 741 742 744 746 747 749 750 751 753 754 755 756 757 759 760 761 762 764 765 766 767 768 769 770 771 771 771 771 772 772 773 774 775
691 692 693 695 697 698 700 702 703 705 706 708 709 710 711 712 714 715 716 717 719 720 721 723 724 725 727 728 729 731 732 733 734 735 736 738 739 741 742 744 745 747 749 750 751 752 753 754 755 756 758 759 760 761 763 764 765 766 768 769 770 771 770 770 770 771 771 772 772
689 691 692 694 695 697 699 700 702 704 705 706 708 709 710 711 712 714 715 716 718 719 720 722 723 725 726 727 728 729 731 732 733 734 736 737 738 740 741 742 744 746 747 748 750 751 751 752 753 755 756 757 758 760 761 762 763 765 766 767 768 769 769 769 769 769 770 770 770
688 689 691 692 694 696 697 699 701 702 704 706 707 708 709 710 711 713 714 715 716 718 719 721 722 723 725 726 727 728 730 731 732 733 735 736 737 739 740 741 743 744 746 747 748 749 750 751 752 753 755 756 757 758 759 761 761 763 764 765 766 767 768 768 768 768 768 768 769
686 688 690 691 693 694 696 698 700 701 703 704 706 707 708 709 710 711 712 714 715 717 718 720 721 722 723 725 726 727 729 730 731 732 734 735 736 737 739 740 741 743 744 746 746 747 748 750 751 752 753 755 756 757 758 759 760 761 762 763 765 766 766 767 766 766 767 767 767
685 687 689 690 692 693 695 697 699 700 701 703 704 705 706 708 709 710 711 713 714 716 717 718 720 721 722 723 725 726 727 729 730 731 732 734 735 736 737 739 740 741 743 744 745 746 746 748 749 750 752 753 754 756 756 757 759 760 761 762 763 764 764 765 765 765 765 765 765
684 686 688 690 691 693 694 696 698 699 701 702 703 704 706 706 708 709 711 712 713 715 716 717 719 720 721 722 723 725 726 728 729 730 731 732 734 735 736 737 739 740 741 742 743 744 745 746 747 749 750 752 753 754 755 756 757 758 759 760 761 762 762 763 763 763 763 763 763
683 685 687 689 690 692 693 695 696 698 699 701 702 703 704 706 707 708 710 711 712 713 715 716 717 719 720 721 722 724 725 726 727 729 730 731 732 734 735 736 737 738 739 740 741 742 743 745 746 747 749 750 751 753 754 755 756 757 758 759 760 760 761 761 761 761 761 761 761
682 684 686 687 689 691 692 694 695 697 698 699 700 701 703 704 706 707 708 710 711 712 714 715 716 718 719 720 721 722 724 725 726 727 728 730 731 732 733 734 735 736 737 738 740 741 742 743 744 746 747 748 750 751 752 753 754 755 756 757 758 759 759 760 760 760 760 760 760
681 683 684 686 687 689 691 692 694 695 696 698 699 701 702 703 705 706 707 709 710 711 712 714 715 716 718 719 720 721 722 723 724 726 726 728 729 731 731 733 734 735 736 737 738 739 741 742 743 744 745 746 748 749 751 751 752 753 754 755 756 756 757 757 757 758 758 758 758
680 681 683 684 686 688 689 691 692 694 695 696 698 699 701 702 704 705 706 707 709 710 711 713 714 715 716 718 719 720 721 722 723 724 725 726 727 729 730 731 732 733 734 735 736 737 738 740 741 742 743 744 746 747 748 749 750 751 751 752 753 753 754 754 755 755 756 756 756
679 680 681 683 685 686 687 689 691 692 694 695 696 698 699 701 702 704 705 706 708 709 710 711 713 714 715 716 717 718 719 720 721 722 723 725 726 727 728 729 730 731 731 732 733 735 736 737 738 739 741 742 743 744 745 746 747 748 749 750 750 751 751 752 752 753 753 754 755
677 679 680 681 683 685 686 688 689 691 692 694 695 697 698 700 701 702 704 705 706 708 709 711 712 713 714 715 716 716 718 719 720 721 722 723 724 725 726 727 727 728 729 730 731 732 733 734 736 737 738 739 741 742 743 744 745 746 747 748 748 749 750 750 751 751 752 753 754
676 677 679 680 681 683 685 686 687 689 691 693 694 696 697 699 700 701 703 704 705 706 707 709 710 711 712 713 714 715 716 717 718 720 721 721 722 723 724 725 726 726 727 728 729 730 731 732 734 735 736 737 739 740 741 743 744 745 746 747 748 749 749 750 750 751 751 752 752
675 676 677 679 680 681 683 685 686 688 690 691 693 695 696 697 699 700 701 702 704 705 706 707 709 710 711 712 713 714 715 716 717 718 719 720 721 722 722 723 724 725 726 727 728 729 730 731 732 733 734 736 737 739 740 742 744 746 747 748 748 748 749 749 749 749 749 750 751
673 675 676 677 679 680 681 683 685 687 689 690 692 693 695 696 697 698 700 701 702 704 705 706 707 708 709 711 711 713 714 715 716 717 718 719 720 720 721 722 723 724 725 726 727 728 728 729 730 731 733 734 736 737 739 741 744 746 746 746 746 746 746 746 746 747 747 748 749
672 673 675 676 677 679 681 682 684 686 687 689 691 692 693 695 696 697 699 700 701 702 704 705 706 707 708 709 710 711 712 713 715 716 716 717 718 719 720 721 722 724 725 725 725 726 726 727 728 729 731 733 735 736 739 742 745 745 744 744 744 744 744 744 745 745 746 747 747
670 671 673 674 676 678 679 681 683 684 686 688 689 691 692 693 695 696 697 699 700 701 702 703 704 705 706 707 709 710 711 712 713 714 716 716 717 718 719 721 722 723 722 723 723 724 724 725 726 727 729 731 733 736 740 742 742 742 742 742 742 742 743 744 744 745 745 746 746
668 669 671 673 675 676 678 680 681 683 685 686 688 689 691 692 693 695 696 697 698 700 701 701 703 704 705 706 707 709 710 711 713 714 715 716 717 718 719 720 721 721 720 721 721 722 722 723 724 726 727 730 732 736 738 739 739 740 740 741 741 742 742 743 743 744 744 745 745
666 667 669 671 673 675 677 679 680 682 683 685 686 688 689 691 692 693 694 696 697 698 699 700 701 703 704 705 707 709 711 713 714 715 716 716 717 717 718 719 720 719 719 719 720 720 721 722 723 724 726 728 731 733 734 735 736 737 738 739 740 740 741 742 742 743 744 744 745
664 666 668 670 672 674 676 677 679 680 681 683 684 686 687 689 690 691 693 694 695 696 697 699 700 701 703 706 708 711 713 714 715 715 715 715 715 716 717 718 718 718 718 718 719 720 721 721 722 723 724 726 728 730 731 733 735 736 737 738 739 740 741 741 742 743 744 745 745
664 666 668 670 671 673 675 676 677 679 680 681 683 685 686 687 689 690 691 692 693 695 696 697 699 701 704 707 709 711 712 712 712 713 714 714 714 715 716 717 717 717 717 717 718 719 720 721 721 721 722 724 726 727 730 732 734 735 736 738 739 740 741 741 742 744 745 746 746
663 665 667 669 670 672 673 675 676 677 678 680 681 683 685 686 687 688 689 691 692 694 696 698 700 703 705 706 707 710 711 712 712 713 714 715 715 715 716 716 716 716 717 717 718 719 720 720 720 720 721 722 724 726 728 731 733 735 736 737 739 740 741 742 743 744 745 746 746
661 663 665 667 669 670 671 673 674 675 676 678 680 682 684 685 686 688 690 691 694 695 697 698 700 701 703 704 707 709 711 711 712 712 713 715 715 715 716 716 716 717 717 717 718 718 719 719 719 719 720 722 724 726 728 730 733 735 736 737 738 740 741 743 744 745 746 746 746
659 661 662 664 666 668 669 671 672 674 676 678 680 681 683 685 687 688 689 691 692 694 695 696 699 701 702 704 707 709 711 711 713 714 714 715 715 716 716 716 717 717 717 717 718 718 719 718 717 717 719 721 723 725 727 729 732 734 736 738 738 740 741 743 744 746 746 747 747
Wind_Speed
27 27 26 26 26 25 24 23 22 23 23 24 25 26 27 27 27 27 28 27 27 28 29 30 32 35 37 38 36 33 31 30 30 31 33 35 35 34 33 33 32 32 31 29 29 28 27 27 26 26 26 27 28 30 31 31 31 31 32 32 32 32 32 32 31 31 30 29 29
28 28 27 27 26 25 23 23 23 23 23 24 25 25 27 27 27 27 28 28 29 30 30 29 31 34 37 39 39 36 33 31 30 30 31 34 36 36 35 34 33 32 31 28 26 26 25 26 26 26 26 27 28 29 30 30 31 31 32 32 32 31 31 31 32 32 32 31 30
28 28 27 27 26 25 23 22 23 24 24 24 24 25 25 27 27 27 27 28 29 30 30 29 31 33 37 39 40 38 34 31 30 30 31 33 35 36 36 35 33 32 30 28 26 25 25 26 27 28 27 28 29 29 30 30 30 31 31 32 32 31 30 30 31 32 32 32 31
28 28 27 27 27 27 25 23 24 25 25 24 25 25 25 26 26 26 26 27 28 29 29 29 30 32 35 39 39 37 34 30 29 29 30 31 33 34 34 32 31 30 29 28 28 27 27 28 29 29 29 29 31 31 31 30 30 30 31 32 32 31 30 30 30 31 31 32 31
27 28 28 28 28 28 26 24 25 26 25 25 25 25 25 26 26 26 25 26 27 28 30 30 31 32 34 38 38 36 32 29 29 29 29 31 31 31 31 30 29 29 29 29 30 30 31 31 31 31 31 32 33 33 32 31 31 30 30 31 31 30 30 30 30 30 31 31 31
27 27 28 28 29 28 26 25 26 26 26 25 26 26 26 25 26 25 25 25 27 28 29 30 31 32 34 38 38 36 32 29 29 28 28 29 30 30 30 30 30 30 30 31 32 34 35 35 34 33 33 33 34 34 33 32 31 30 30 30 30 30 30 30 30 30 30 30 30
27 27 27 28 28 28 26 25 26 27 27 26 26 26 26 26 26 27 27 27 27 27 27 29 30 32 34 37 38 36 33 30 29 28 28 29 29 30 30 31 31 32 32 33 34 36 37 37 36 34 34 33 33 34 33 32 31 31 30 29 30 30 30 30 30 30 29 29 30
28 28 28 28 29 28 26 26 27 27 27 26 26 27 27 27 27 28 28 28 27 26 26 27 30 32 35 38 39 38 35 33 31 30 29 29 29 30 31 31 32 33 33 34 35 37 38 38 36 35 34 34 33 32 32 32 31 31 31 30 30 30 30 30 29 29 29 29 30
27 28 28 27 28 28 27 27 27 27 27 27 27 27 28 27 27 28 28 28 27 27 26 27 29 31 35 38 40 40 38 35 33 32 31 30 30 30 31 32 32 33 34 35 36 37 38 38 35 34 34 33 32 31 31 31 31 31 31 31 30 30 30 30 29 29 29 29 30
27 28 28 27 28 28 27 27 27 27 27 27 26 27 28 27 27 28 28 28 27 27 26 27 28 30 33 37 39 40 38 36 35 34 33 32 31 32 31 31 32 33 34 34 35 36 37 36 34 33 33 32 31 30 30 31 31 32 32 31 30 30 30 30 29 29 29 30 30
28 29 28 27 27 28 27 27 27 27 27 27 26 26 27 27 27 28 28 27 27 27 27 27 28 29 32 34 37 38 38 36 35 34 34 34 33 33 32 31 31 32 33 33 33 32 33 33 33 32 32 31 30 29 29 30 31 32 32 32 31 30 30 30 30 29 29 30 31
28 29 28 27 27 27 26 26 26 26 26 26 26 26 27 27 27 27 28 27 27 27 28 28 28 29 30 31 33 35 35 34 34 34 35 35 35 34 33 32 31 31 32 31 30 29 30 31 31 31 31 31 30 29 29 30 30 31 32 32 31 30 30 30 30 29 29 29 30
28 28 28 27 27 26 26 26 25 25 26 26 26 26 26 27 27 28 28 27 27 27 28 28 28 29 29 29 30 31 32 32 33 33 34 35 35 34 33 32 32 31 30 29 29 28 28 29 30 30 31 31 30 30 30 30 29 30 30 31 31 31 30 30 30 29 29 29 29
27 27 27 27 26 26 26 25 25 25 25 26 26 26 26 27 27 28 28 28 28 28 27 28 28 28 29 28 28 29 29 30 30 31 32 33 34 33 33 32 32 31 30 28 28 28 28 29 29 29 30 31 31 31 30 30 29 28 29 30 31 31 30 29 29 30 30 30 29
26 26 27 27 27 26 26 26 25 25 25 26 26 26 26 26 27 28 28 28 28 28 27 27 27 28 28 28 28 27 28 28 28 28 30 31 32 33 32 32 32 32 30 29 28 29 29 29 30 30 29 30 31 31 30 29 28 28 29 31 31 31 30 30 30 31 31 31 31
25 26 27 27 27 26 26 26 25 25 25 26 26 26 26 26 27 28 28 28 28 27 27 27 27 27 27 27 27 27 26 26 26 27 28 29 31 32 32 32 32 32 31 30 29 29 30 31 31 31 31 30 30 30 30 29 28 28 29 30 31 31 31 32 32 33 33 33 32
25 26 27 27 27 27 26 26 25 24 25 26 26 27 27 27 26 27 28 28 27 27 26 26 26 26 26 26 26 25 25 25 25 25 26 28 29 31 32 32 32 31 31 30 30 31 31 32 32 33 33 32 31 30 30 30 29 29 30 31 32 33 33 34 34 34 33 33 32
26 26 27 27 28 28 27 27 25 25 25 26 26 27 27 27 26 27 28 29 28 27 26 26 26 26 25 25 25 25 24 24 24 25 26 27 28 29 31 32 31 30 29 30 31 31 32 33 34 34 34 33 32 31 31 30 30 30 30 31 32 33 34 34 34 33 33 33 32
26 26 27 27 28 28 28 28 26 26 26 26 26 27 27 27 27 27 27 28 28 28 27 27 26 26 26 26 25 24 24 23 24 24 26 26 27 28 29 29 29 28 27 28 29 30 31 32 32 32 32 31 31 30 30 30 30 30 30 30 32 33 33 33 33 33 33 32 32
25 26 26 27 28 29 29 29 27 26 26 26 26 27 27 28 28 28 28 28 29 29 28 27 27 26 26 26 26 25 24 23 23 24 25 26 27 28 28 27 26 26 25 25 25 26 26 27 28 28 27 27 28 28 28 29 29 30 30 30 31 33 33 33 33 33 33 32 32
25 25 26 26 27 28 29 29 28 26 26 26 27 27 28 28 28 28 28 29 29 29 28 27 27 26 26 26 26 25 25 24 23 23 25 26 28 29 28 27 25 24 24 24 23 23 22 22 22 23 24 25 26 27 27 28 28 29 29 30 31 33 34 34 33 33 33 33 33
25 25 26 26 26 27 28 28 27 26 25 26 27 28 28 28 28 29 29 29 30 29 28 27 27 27 26 26 26 26 26 25 24 24 25 25 27 28 29 28 26 24 23 23 24 24 23 22 21 21 23 24 26 27 27 27 28 29 29 30 31 32 33 34 34 34 33 33 33
25 25 25 25 26 27 27 28 27 26 25 25 27 28 28 28 28 28 29 29 30 30 29 28 28 27 27 27 27 27 26 25 25 24 25 25 26 27 28 28 27 25 24 24 24 25 25 25 24 23 24 25 26 27 27 28 28 29 30 30 31 31 32 33 33 33 33 33 33
25 25 24 24 25 26 27 27 27 26 25 26 27 27 28 28 27 27 27 28 29 30 29 29 28 28 28 28 27 27 27 26 25 25 25 26 26 27 28 28 28 27 26 25 25 26 27 27 27 27 26 27 27 28 28 29 29 30 30 30 31 31 32 33 33 33 34 34 34
26 25 25 25 25 26 27 27 27 27 26 26 27 27 28 28 27 27 27 27 28 29 30 29 28 28 28 28 28 28 28 27 27 26 26 27 27 27 28 29 29 29 29 28 28 28 29 29 30 29 29 29 29 30 30 31 31 31 31 32 32 32 33 34 34 34 35 34 34
26 26 26 26 26 27 27 28 28 28 27 27 27 27 28 28 27 27 27 27 28 29 30 30 29 28 28 28 28 28 28 28 28 28 28 28 28 28 29 30 30 31 31 31 31 31 31 32 32 32 32 32 32 33 33 34 34 34 34 34 34 34 34 34 35 35 36 36 36
27 26 26 27 27 27 28 28 28 28 27 27 27 27 28 28 27 27 27 27 28 29 30 30 29 28 28 28 28 28 29 29 29 30 30 30 30 29 29 30 31 32 33 34 35 35 35 36 36 36 36 36 35 35 35 36 36 36 36 36 35 35 35 34 34 35 36 37 37
27 27 27 27 27 28 28 28 28 28 28 27 28 28 28 28 27 27 27 27 27 27 28 28 27 27 27 27 28 29 29 30 30 30 31 31 31 31 31 32 33 34 35 37 37 38 39 39 39 40 40 39 38 37 37 37 36 36 35 35 34 34 34 34 34 35 35 35 35
28 27 27 27 28 28 28 28 28 28 28 28 28 27 27 27 27 27 27 27 27 27 26 26 26 25 26 27 27 28 29 30 31 31 32 32 33 33 34 34 35 36 37 38 39 40 41 41 42 42 42 42 40 38 37 35 34 33 33 32 32 32 32 33 33 32 32 31 29
29 28 27 28 28 29 29 29 29 29 28 28 27 27 27 27 27 27 27 27 27 27 26 25 25 25 26 27 27 28 29 30 31 31 32 32 33 33 34 35 35 37 38 39 40 41 41 42 42 43 43 43 42 39 36 33 31 30 29 28 28 28 28 28 27 27 26 24 22
29 29 28 28 29 29 29 29 29 29 28 27 27 27 27 27 27 28 28 27 27 27 27 26 26 26 27 27 28 28 29 30 30 30 31 31 32 32 33 34 35 36 37 38 38 39 40 41 42 43 43 43 42 40 37 33 28 25 23 21 20 20 19 19 18 18 17 16 15
29 29 29 29 29 29 29 29 29 29 28 28 27 27 27 28 28 28 28 27 27 27 27 27 27 27 27 28 28 28 29 29 30 30 30 30 31 31 32 33 33 33 33 33 35 37 38 40 41 42 42 42 42 41 38 32 24 19 16 13 12 11 11 10 11 10 10 10 13
30 30 30 30 30 29 29 29 29 29 29 28 28 27 27 27 28 27 27 27 27 27 27 28 28 28 28 28 28 29 29 30 30 30 31 30 30 31 31 31 30 29 28 30 33 35 38 39 41 41 42 42 42 40 35 26 19 14 11 9 9 9 10 10 10 10 10 12 14
31 30 30 30 30 30 29 29 29 29 29 28 28 28 28 27 27 27 27 27 27 27 27 28 28 29 29 29 29 29 29 30 30 30 31 31 31 31 30 28 26 26 28 29 32 35 37 39 40 41 41 41 40 35 27 20 15 13 12 10 10 11 11 11 11 11 12 12 14
31 31 31 30 30 30 30 29 29 29 29 29 28 28 28 28 27 28 28 28 27 27 28 28 29 29 29 29 30 30 30 30 30 30 29 29 30 30 28 26 24 25 26 28 30 33 35 37 38 39 39 37 32 25 21 19 16 16 15 14 14 13 13 13 12 12 13 14 14
31 31 31 31 30 30 30 30 29 29 29 29 29 28 28 28 28 28 28 28 28 28 28 28 29 29 29 29 28 27 26 26 25 23 22 22 22 23 24 24 22 22 23 25 27 28 30 31 33 33 31 27 23 22 22 22 20 20 19 18 19 19 18 17 17 16 16 16 15
31 31 31 30 30 30 30 29 29 30 30 30 29 29 29 28 28 29 29 29 29 29 29 29 29 29 28 26 23 19 15 13 11 11 12 12 12 14 17 19 17 18 20 22 23 23 22 22 22 22 21 21 23 25 25 24 23 23 23 22 23 24 23 22 21 20 19 18 17
29 29 30 30 29 29 29 29 29 30 30 30 30 30 29 29 29 29 30 30 30 29 29 28 28 26 23 19 15 11 9 6 6 7 7 7 7 9 12 13 13 14 17 18 18 17 15 13 13 15 19 24 27 28 27 26 26 27 27 28 28 28 27 26 26 25 23 22 21
29 29 29 29 30 29 29 29 30 30 30 31 30 30 30 30 29 29 29 29 27 26 25 23 21 18 17 15 14 12 10 10 10 10 9 8 8 9 10 9 8 9 11 13 14 13 12 12 13 18 23 28 30 30 29 28 28 29 30 31 31 31 31 30 30 29 28 27 25
31 31 31 30 30 30 30 30 30 30 30 31 31 30 29 29 27 26 24 23 21 18 16 15 15 16 17 18 17 15 15 16 15 14 13 12 11 11 10 8 6 4 5 7 8 10 13 16 19 22 27 30 31 31 31 30 30 31 32 32 32 32 32 32 32 32 31 31 29
32 32 32 32 31 31 31 31 30 29 28 28 28 28 27 25 22 19 18 18 17 16 17 19 19 20 21 21 20 19 20 21 20 19 18 17 15 14 12 11 10 8 7 8 10 14 19 23 25 28 30 31 32 32 33 33 32 31 30 30 31 32 32 32 33 33 33 32 32
Wind_Direction
185 185 185 184 184 185 186 187 188 188 187 187 188 189 189 189 190 190 191 190 189 189 189 189 190 190 191 191 191 192 193 194 194 194 194 193 192 191 189 186 184 183 183 187 195 202 207 209 211 213 214 215 215 214 212 208 204 202 202 202 203 204 206 206 206 205 204 203 204
186 186 185 185 185 185 186 187 187 187 187 189 189 189 189 189 189 189 190 191 193 193 192 191 191 192 193 194 194 193 193 194 195 195 196 195 194 194 193 190 188 186 186 187 193 200 206 209 212 214 216 218 219 218 215 211 207 204 204 205 206 207 208 209 209 209 208 208 208
187 186 187 188 186 185 185 186 187 188 188 189 189 189 189 189 188 187 188 190 192 193 192 191 192 193 194 195 195 193 193 193 195 196 197 196 195 196 196 195 193 191 190 192 196 202 207 210 212 214 216 218 219 219 217 213 209 207 206 207 208 209 210 211 212 212 211 211 212
187 187 187 187 188 188 188 187 188 188 188 188 189 189 189 189 188 188 188 188 190 190 191 191 191 192 193 194 193 191 190 192 195 196 197 197 196 197 198 199 197 195 195 197 202 207 211 213 213 214 215 216 218 219 217 213 210 208 209 209 210 211 212 213 214 214 213 214 215
188 187 187 188 189 190 190 189 189 189 189 189 190 190 190 189 188 187 186 185 186 187 189 191 190 190 191 191 189 187 187 189 193 196 198 198 198 198 199 200 199 199 200 202 206 210 213 214 213 212 213 215 217 218 217 214 211 210 210 211 212 212 213 214 215 215 215 216 217
189 189 189 190 191 192 193 192 191 191 190 191 191 191 190 189 188 188 186 185 186 187 188 190 189 189 189 189 187 185 184 186 189 193 196 197 198 199 200 201 202 202 204 207 210 212 214 214 213 212 213 213 215 216 216 214 212 211 211 212 213 214 215 215 216 216 216 217 219
189 190 191 193 193 193 193 195 194 192 192 193 194 192 191 190 190 190 190 190 189 188 188 188 188 188 187 187 186 185 185 185 187 189 192 195 197 198 200 201 203 205 207 209 212 213 214 213 213 212 212 212 214 215 215 214 213 211 211 212 214 215 215 216 216 217 217 218 219
190 191 192 194 194 194 194 196 195 193 193 194 194 194 193 193 193 193 194 194 193 192 190 188 187 187 187 187 187 187 187 187 187 188 189 191 193 196 198 200 202 205 208 210 212 213 213 213 213 212 212 212 213 213 214 214 213 212 212 213 215 216 216 216 217 217 218 218 220
191 193 194 194 195 194 195 196 196 195 195 196 196 196 195 195 195 195 196 196 197 196 194 190 187 187 187 187 188 189 190 191 191 190 189 189 191 193 196 199 201 204 207 210 211 212 212 212 211 212 212 213 212 213 213 213 213 213 214 214 215 216 217 217 217 217 218 219 220
190 191 192 193 193 194 194 195 195 195 195 196 197 197 196 196 196 196 197 198 199 198 197 193 189 186 186 187 189 191 193 194 194 194 192 192 192 193 196 199 202 205 208 210 211 212 212 211 211 211 212 212 212 213 213 213 213 214 214 215 215 216 216 217 217 217 217 218 220
189 189 189 190 191 192 193 193 194 195 196 197 197 198 198 198 198 198 198 199 199 198 198 196 190 187 186 188 189 192 194 195 196 197 197 196 196 196 197 200 204 207 209 210 211 213 213 213 213 213 213 214 214 214 214 214 214 214 214 215 215 215 215 216 216 216 217 218 220
187 187 188 188 190 191 191 192 193 194 196 197 198 199 199 199 199 199 199 198 198 198 198 197 193 189 187 187 188 191 193 195 197 198 199 200 200 200 201 204 207 209 211 210 210 212 214 216 216 215 214 214 214 214 215 215 215 214 214 215 215 214 215 215 215 216 217 219 221
185 185 186 187 188 190 191 192 193 194 196 198 199 199 200 200 200 200 199 198 198 198 197 197 194 192 190 188 189 190 191 193 195 197 199 201 202 203 204 206 209 211 212 211 210 211 213 215 217 216 215 214 214 214 214 215 215 215 215 215 214 214 214 214 215 216 218 220 222
184 184 185 186 188 189 191 193 194 195 196 198 199 200 200 201 201 201 200 199 198 198 197 196 195 194 193 192 191 191 191 192 193 195 197 200 202 203 205 207 209 211 212 212 211 211 212 213 215 215 215 214 213 213 213 214 215 216 216 216 215 214 214 214 215 217 219 221 223
183 184 186 186 187 189 192 194 196 197 198 199 200 200 200 201 202 202 201 200 199 198 197 196 195 195 195 194 194 193 192 192 191 192 194 197 199 201 203 205 207 208 210 212 213 213 213 213 213 213 213 214 214 213 213 213 214 216 218 219 217 215 214 214 216 218 220 221 222
184 185 186 187 188 190 192 195 198 199 199 199 199 200 200 200 201 202 201 200 199 198 196 195 195 195 195 195 195 195 194 193 192 192 193 195 197 200 201 203 205 207 209 211 213 214 215 214 213 212 211 211 212 212 212 212 213 215 218 220 219 217 215 215 216 218 220 221 222
185 186 187 188 188 190 192 194 196 197 198 198 199 199 199 199 200 200 200 200 199 198 197 196 196 196 195 196 196 195 195 195 195 195 196 196 197 199 201 202 204 205 208 211 213 215 216 215 214 212 210 208 208 209 209 210 212 214 217 219 219 218 217 216 216 217 219 221 222
188 187 187 188 189 190 191 193 194 196 197 198 198 198 198 199 198 199 199 199 199 199 198 198 198 197 197 197 197 197 197 197 198 199 199 200 200 200 201 202 203 205 208 211 214 216 216 216 215 212 210 206 205 205 206 208 210 212 215 217 219 220 219 218 217 218 219 222 224
190 189 188 188 189 190 192 192 193 195 197 198 197 197 198 198 198 198 198 198 199 199 199 199 199 199 199 199 199 199 199 200 201 202 203 203 202 201 201 201 202 204 207 211 214 215 216 215 213 211 208 205 203 203 204 206 208 210 213 216 219 221 222 222 221 221 223 225 227
190 189 189 189 189 190 191 192 192 194 197 198 197 197 197 198 199 199 198 198 198 199 199 199 199 200 200 201 201 202 202 204 203 204 204 204 204 202 202 202 203 205 208 211 213 214 213 212 209 207 205 204 203 203 205 207 208 210 213 216 219 223 225 225 225 226 227 230 232
189 189 189 189 188 189 190 191 192 193 195 196 197 197 197 198 198 198 198 198 198 198 198 198 198 198 199 200 201 202 203 205 204 204 205 205 205 204 203 203 204 206 208 209 210 210 209 207 204 203 204 205 206 207 209 210 212 214 216 218 221 225 228 229 229 230 231 234 236
188 189 189 188 189 189 190 190 191 192 194 195 196 196 196 197 197 198 199 199 198 197 197 198 198 198 198 199 200 202 203 205 205 206 206 206 206 206 206 205 206 208 209 210 210 209 208 206 205 205 206 209 211 213 214 216 218 219 221 223 225 228 230 232 233 234 235 236 239
189 189 189 190 190 190 190 190 191 192 194 195 196 196 196 197 197 198 199 199 198 197 198 199 199 200 200 201 202 203 204 204 206 206 206 206 206 206 207 208 209 210 211 211 211 211 210 210 210 210 211 213 215 217 219 221 222 224 226 228 229 231 233 235 237 238 238 240 241
189 188 188 189 190 190 190 191 192 193 195 196 196 196 196 196 197 197 197 197 198 198 199 200 201 202 202 203 203 204 204 205 206 206 207 207 207 207 208 209 210 212 213 213 213 212 213 213 214 215 216 217 219 220 222 223 225 227 229 231 233 234 236 238 240 242 243 243 244
190 189 189 190 190 191 191 192 193 195 196 196 196 196 196 196 196 196 196 197 198 199 200 201 203 204 204 205 205 206 206 206 206 207 208 209 209 209 210 211 212 214 215 216 215 215 215 215 216 217 218 220 221 222 224 225 227 228 230 231 233 235 237 239 242 244 246 247 248
190 190 190 191 191 191 192 194 195 196 196 196 196 196 196 196 197 196 197 197 199 200 202 203 204 205 206 207 207 207 208 208 208 208 209 209 210 211 212 213 214 216 217 218 218 218 217 218 219 219 219 220 221 223 224 226 227 229 230 231 232 234 236 238 241 244 246 248 249
191 191 191 191 191 192 193 194 196 196 197 197 196 196 196 197 197 197 198 198 199 201 202 203 205 206 207 208 208 209 209 209 210 210 210 211 211 212 213 214 215 217 218 219 220 220 220 220 221 221 221 221 222 223 224 226 228 229 230 231 232 233 235 237 239 242 244 246 248
191 191 191 190 191 192 193 194 195 196 197 197 197 196 196 196 197 198 198 199 200 200 202 203 205 206 207 209 209 210 210 210 211 211 212 212 213 213 214 215 216 218 219 220 221 221 222 222 222 223 223 223 223 224 225 227 229 231 232 233 234 235 236 238 240 241 243 245 247
192 192 190 189 190 192 193 194 195 196 197 197 197 196 196 196 197 198 199 199 199 200 201 203 204 205 207 208 209 210 211 211 212 212 213 214 215 215 216 216 218 219 220 221 222 223 223 224 224 225 225 225 225 226 227 228 230 232 234 235 236 238 239 240 242 243 245 246 247
192 192 191 190 190 191 193 195 196 197 197 197 197 196 196 196 197 198 199 199 199 200 200 201 202 204 206 208 209 210 211 212 212 213 214 215 216 216 217 218 219 221 222 223 224 225 226 227 227 227 228 228 228 228 228 229 231 233 235 238 240 242 244 246 247 248 249 249 247
193 193 193 191 191 192 193 195 196 197 197 197 197 196 195 196 197 198 199 199 200 200 201 201 202 203 206 207 208 209 210 212 213 214 215 216 217 218 219 220 222 223 225 226 227 228 229 230 230 231 231 231 230 230 230 230 231 234 238 241 244 246 247 247 247 247 245 242 232
194 194 194 194 193 193 194 194 195 196 196 197 196 196 196 197 197 199 199 200 200 200 201 201 202 203 205 207 208 210 211 212 213 215 216 217 218 220 221 222 223 225 227 229 230 231 232 232 233 233 234 234 233 232 231 230 230 232 235 237 237 234 229 224 221 217 209 197 188
194 195 195 195 195 194 194 194 194 195 196 196 196 196 196 197 198 199 199 200 200 200 200 201 202 203 205 206 208 210 212 213 214 216 217 219 220 222 223 224 225 226 228 230 232 233 234 235 235 236 236 236 235 234 231 227 223 220 217 211 205 197 190 185 179 170 164 165 167
195 195 196 196 196 196 195 194 194 194 195 196 196 197 197 197 198 199 200 200 200 200 201 202 203 204 206 207 208 210 212 214 216 217 219 220 222 224 224 224 224 225 227 230 232 234 236 237 237 238 238 237 236 232 225 214 204 196 188 176 170 165 160 157 155 152 150 152 157
195 195 196 196 196 196 196 195 195 194 195 196 197 197 198 198 199 200 200 201 202 202 203 204 205 206 207 208 210 211 213 215 217 219 222 225 227 228 227 225 223 224 226 228 231 234 236 238 239 239 239 237 232 221 205 191 178 172 165 153 149 144 140 137 138 140 140 141 142
195 195 196 196 196 196 196 196 195 195 196 196 197 198 199 200 201 201 202 202 202 203 204 205 206 207 208 209 211 213 216 218 220 221 223 227 230 231 228 222 220 222 225 227 229 232 235 237 239 239 236 227 211 193 180 172 163 155 149 141 133 128 123 121 121 123 125 125 126
195 195 196 196 196 196 196 196 196 196 197 198 198 199 199 201 202 203 203 202 202 203 204 205 206 208 209 209 208 208 213 218 215 209 209 213 215 216 213 211 211 216 221 224 226 228 230 232 233 229 216 195 179 170 164 155 148 141 133 125 118 113 111 109 108 107 107 108 109
196 196 196 196 196 196 197 197 197 197 198 198 199 199 200 201 202 203 204 203 203 203 204 206 207 208 206 200 188 178 174 173 158 160 165 164 164 174 183 190 200 211 218 220 222 222 220 217 212 200 185 171 163 158 151 143 135 128 121 114 108 104 102 101 99 98 96 95 97
195 196 197 197 197 197 198 198 198 199 199 198 199 199 200 202 203 204 204 204 204 204 205 205 203 197 185 169 157 141 128 131 128 128 129 129 123 135 152 166 184 206 217 220 219 216 209 198 186 177 170 163 156 150 143 137 130 121 114 109 104 100 97 96 95 92 90 90 91
194 195 196 197 197 198 198 199 200 200 199 198 198 199 200 202 203 204 203 201 199 195 188 177 162 154 149 143 140 123 106 106 106 107 106 105 106 112 122 126 132 159 196 206 203 196 190 186 181 174 167 159 152 145 139 134 126 117 109 106 103 99 95 93 91 89 87 86 86
192 193 194 195 197 198 199 200 201 200 199 198 197 198 199 198 197 193 186 180 171 160 147 136 134 133 132 131 128 115 101 94 92 91 92 93 95 96 96 93 94 103 122 144 154 161 166 171 175 173 167 158 150 143 138 133 126 117 110 105 103 100 95 91 89 86 84 83 83